Regional Weather Roundup
Issued by NWS

Home | Current Version | Previous Version | Text Only | Print | Product List | Glossary On
Versions: 1 2 3 4 5 6 7 8 9 10 11 12 13 14 15 16 17 18 19 20 21 22 23 24 25 26 27 28 29 30 31 32 33 34 35 36 37 38 39 40 41 42 43 44 45 46 47 48 49 50
000
ASUS43 KMKX 220800
RWRWI

WISCONSIN REGIONAL WEATHER ROUNDUP
NATIONAL WEATHER SERVICE MILWAUKEE/SULLIVAN WI
300 AM CDT TUE JUL 22 2014

NOTE: "FAIR" INDICATES FEW OR NO CLOUDS BELOW 12,000 FEET WITH NO
SIGNIFICANT WEATHER AND/OR OBSTRUCTIONS TO VISIBILITY.

WIZ001-002-006>008-014>016-023>028-220900-
NORTHWEST WISCONSIN

CITY           SKY/WX    TMP DP  RH WIND       PRES   REMARKS
SUPERIOR ARPT  LGT RAIN  66  65  97 S13       29.77F
ASHLAND        HVY RAIN  67  65  93 W13G25    29.83F FOG
HAYWARD        CLOUDY    76  72  87 NW7       29.86F THUNDER
SIREN          LGT RAIN  76  67  71 NE6G23    29.80S
RICE LAKE      CLOUDY    76  69  79 SE10      29.84F
LADYSMITH      CLOUDY    75  69  82 S9        29.87F
EAU CLAIRE     CLOUDY    78  71  79 S12       29.84F HX  80
MENOMONIE      CLOUDY    79  72  78 S14       29.83F HX  82
NEW RICHMOND   CLOUDY    78  71  79 S14       29.82S HX  80
OSCEOLA        CLOUDY    79  73  82 S12G17    29.82S HX  83
$$

WIZ003>005-009-010-017-018-220900-
NORTH CENTRAL WISCONSIN

CITY           SKY/WX    TMP DP  RH WIND       PRES   REMARKS
WOODRUFF       CLOUDY    74  69  82 S13       29.90F
RHINELANDER    MOCLDY    73  67  81 S10G18    29.92F
EAGLE RIVER    MOCLDY    72  64  77 S3        29.91F
LAND O LAKES   MOCLDY    73  66  80 S8        29.91F
PHILLIPS       CLOUDY    73  69  86 S5        29.88F
TOMAHAWK       MOCLDY    72  66  82 S5        29.91F
MEDFORD        CLOUDY    73  67  83 S16G24    29.91F
MERRILL        MOCLDY    74  68  83 S8        29.92F
$$

WIZ029-030-035-036-043>047-220900-
CENTRAL WISCONSIN

CITY           SKY/WX    TMP DP  RH WIND       PRES   REMARKS
WAUSAU         MOCLDY    74  68  81 S10       29.91F
MOSINEE        PTCLDY    70  68  94 S10       29.94F
MARSHFIELD     MOCLDY    73  68  84 S10       29.92F
STEVENS POINT  PTCLDY    71  66  85 S9        29.96S
WAUPACA        PTCLDY    74  69  86 S7        29.96R
WAUTOMA        NOT AVBL
WISC RAPIDS    PTCLDY    75  68  78 S8        29.95F
CAMP DOUGLAS   NOT AVBL
$$

WIZ011>013-019>022-031-037>040-048>050-220900-
NORTHEAST WISCONSIN

CITY           SKY/WX    TMP DP  RH WIND       PRES   REMARKS
ANTIGO         PTCLDY    70  67  92 S9        29.96S
STURGEON BAY   CLEAR     68  63  83 S9        29.97F
GREEN BAY      CLEAR     71  66  84 S8        29.96F
MANITOWOC      NOT AVBL
APPLETON       PTCLDY    72  64  78 S13       29.96F
CLINTONVILLE   CLEAR     72  68  88 S7        29.95R
OSHKOSH        PTCLDY    73  68  84 S13       29.96F
$$

WIZ032>034-041-042-053>061-220900-
SOUTHWEST WISCONSIN

CITY           SKY/WX    TMP DP  RH WIND       PRES   REMARKS
LA CROSSE      CLOUDY    80  69  69 S12       29.90S HX  83
SPARTA         CLOUDY    77  66  69 S13G20    29.92F
VIROQUA        FAIR      75  68  79 S10       29.95F
BOSCOBEL       PTCLDY    78  68  71 S6        29.95F HX  80
PRAIRIE DU CHI MOCLDY    79  65  64 S8        29.95R HX  80
PLATTEVILLE    FAIR      73  69  87 S10       30.00F
$$

WIZ056-057-062-063-064-067-068-220900-
SOUTH CENTRAL WISCONSIN

CITY           SKY/WX    TMP DP  RH WIND       PRES   REMARKS
BARABOO/DELLS  PTCLDY    73  66  78 S9        29.97F
LONE ROCK      NOT AVBL
WATERTOWN      MOCLDY    71  67  89 S5        30.01S
MADISON        CLEAR     74  68  81 S9        29.99F
MIDDLETON      FAIR      74  68  80 S7        30.00F
MONROE         CLEAR     72  68  88 S13       30.02S
JANESVILLE     MOCLDY    73  64  73 S8        30.02S
$$

WIZ051-052-058>065-066-070>072-220900-
SOUTHEAST WISCONSIN

CITY           SKY/WX    TMP DP  RH WIND       PRES   REMARKS
MILWAUKEE      CLEAR     72  65  78 SW8       30.02S
WAUKESHA       CLEAR     68  63  83 S7        30.04S
MILWAUKEE/TIMM CLEAR     72  63  73 SW5       30.03S
RACINE         CLEAR     72  65  78 S8        30.04F
BURLINGTON     CLEAR     67  64  90 S6        30.03F
KENOSHA        CLEAR     70  65  84 S8        30.04F
FOND DU LAC    CLEAR     74  66  76 S14       29.98F
SHEBOYGAN      CLEAR     71  66  84 S14       29.99F
WEST BEND      CLEAR     70  63  78 S7        30.02S
JUNEAU         PTCLDY    71  53  51 S9        30.01F
$$

LSZ147-162-220900-
LAKE SUPERIOR

STATION/POSITION TIME  TEMP    WIND        PRES    WAVE
                       AIR SEA DIR/SP/G            HT/PER
                 (UTC) (F)     (DEG/KT/KT) (MB)    (FT/S)
W MID LAKE BUOY  0650   52 40  150/ 14/ 14 1008.5F   1
PORT WING        0700          260/ 24     1012.2R
SAXON HARBOR     0720          210/  7/ 15 1010.5R
$$

LMZ867-665-643>646-220900-
LAKE MICHIGAN

STATION/POSITION TIME  TEMP    WIND        PRES    WAVE
                       AIR SEA DIR/SP/G            HT/PER
                 (UTC) (F)     (DEG/KT/KT) (MB)    (FT/S)
N MID LAKE BUOY  0650   62 56  190/ 12/ 14 1014.4F   2/ 5
NORTHPORT PIER   0700   66     150/  6/ 11 1014.9F
KEWAUNEE LAKESHO 0700   58     180/  7/  9 1015.8F
SHEBOYGAN LAKESH 0700   68     190/  9/  9 1016.1F
PORT WASHINGTON  0740   62     190/  6/  8 1016.9S
ATWATER BUOY     0700   58     160/  6     1017.6F
MILWAUKEE LAKESH 0700   73     200/ 10/ 12   N/A
S MID LAKE BUOY  0650   71 69  190/ 10/ 10 1017.4S   1
KENOSHA   LAKESH 0700   72     200/  5/  7   N/A
$$

TC  - TEMPERATURE IN CELSIUS
VSB - VISIBILITY IN STATUTE MILES
WCI - WIND CHILL INDEX
HX  - HEAT INDEX



USA.gov is the U.S. government's official web portal to all federal, state and local government web resources and services.